Home   Weather   Brighton   Past weeks

Flag for United Kingdom Past Weather in Brighton, England, United Kingdom — Yesterday and Last 2 Weeks

Now
59 °F

Clear.


Feels Like: 58 °F
Forecast: 59 / 65 °F
Wind: 8 mph from Southwest

Location: London / Gatwick Airport

Current Time: Jul 27, 2017 at 1:46:19 am

Latest Report: Jul 27, 2017 at 12:50 am


Visibility: 10 mi

Pressure: 29.74 "Hg

Humidity: 77%

Dew Point: 52 °F

Location of BrightonLocation

Past Weather in Brighton — Graph

°F

Brighton Temperature Yesterday

Maximum temperature yesterday: 68 °F (at 2:50 pm)
Minimum temperature yesterday: 57 °F (at 3:20 am)
Average temperature yesterday: 62 °F

High & Low Weather Summary for the Past Weeks

 TemperatureHumidityPressure
High81 °F (Jul 18, 2:20 pm)100% (Jul 12, 3:50 am)30.24 "Hg (Jul 12, 3:50 am)
Low50 °F (Jul 13, 4:50 am)40% (Jul 20, 4:50 pm)29.65 "Hg (Jul 12, 2:20 am)
Average63 °F78%29.96 "Hg
* Reported Jul 12 12:20 am — Jul 27 12:20 am, Brighton. Weather by CustomWeather, © 2017

Note: Actual official high and low records may vary slightly from our data, if they occured in-between our weather recording intervals... More about our weather records

Advertising

Brighton Weather History for the Previous 24 Hours

Scroll right to see more
 ConditionsComfort  
Time TempWeatherWind HumidityBarometerVisibility
12:20 am
Thu, Jul 27
59 °FPassing clouds.7 mph82%29.74 "HgN/A
11:50 pm
Wed, Jul 26
59 °FPassing clouds.6 mph88%29.74 "HgN/A
11:20 pm61 °FPassing clouds.9 mph83%29.74 "HgN/A
10:50 pm63 °FPassing clouds.10 mph83%29.74 "HgN/A
10:20 pm63 °FPassing clouds.9 mph94%29.71 "HgN/A
9:50 pm63 °FPassing clouds.10 mph94%29.71 "HgN/A
9:20 pm64 °FPassing clouds.10 mph88%29.71 "HgN/A
8:50 pm64 °FPartly sunny.10 mph88%29.71 "HgN/A
8:20 pm64 °FLight rain. Partly sunny.10 mph94%29.68 "Hg4 mi
7:50 pm64 °FPartly sunny.9 mph94%29.68 "HgN/A
7:20 pm64 °FPartly sunny.10 mph94%29.68 "HgN/A
6:50 pm64 °FPartly sunny.10 mph94%29.68 "HgN/A
6:20 pm64 °FPartly sunny.12 mph94%29.68 "HgN/A
5:50 pm64 °FPartly sunny.12 mph94%29.68 "Hg3 mi
5:20 pm64 °FDrizzle. Partly sunny.12 mph94%29.71 "Hg3 mi
4:50 pm64 °FPartly sunny.14 mph94%29.71 "Hg4 mi
4:20 pm66 °FLight rain. Partly sunny.12 mph88%29.71 "Hg4 mi
3:50 pm66 °FLight rain. Partly sunny.12 mph88%29.71 "HgN/A
3:20 pm68 °FPartly sunny.13 mph83%29.71 "HgN/A
2:50 pm68 °FPartly sunny.12 mph88%29.74 "HgN/A
2:20 pm66 °FScattered clouds.10 mph94%29.74 "HgN/A
1:50 pm66 °FScattered clouds.9 mph94%29.74 "HgN/A
1:20 pm64 °FPartly sunny.7 mph94%29.74 "HgN/A
12:50 pm64 °FDrizzle. Partly sunny.7 mph94%29.74 "Hg4 mi
12:20 pm63 °FDrizzle. Low clouds.10 mph100%29.77 "Hg3 mi
11:50 am63 °FDrizzle. Partly sunny.8 mph100%29.77 "Hg6 mi
11:20 am63 °FDrizzle. Low clouds.8 mph94%29.77 "Hg2 mi
10:50 am63 °FDrizzle. Low clouds.10 mph94%29.77 "Hg5 mi
10:20 am63 °FDrizzle. Low clouds.9 mph94%29.77 "Hg2 mi
9:50 am63 °FDrizzle. Partly sunny.6 mph94%29.80 "Hg4 mi
9:20 am63 °FDrizzle. Partly sunny.8 mph88%29.80 "Hg2 mi
8:50 am63 °FPartly sunny.7 mph88%29.80 "HgN/A
8:20 am63 °FPartly sunny.7 mph88%29.80 "HgN/A
7:50 am61 °FPartly sunny.8 mph88%29.80 "HgN/A
7:20 am61 °FPartly sunny.7 mph94%29.83 "HgN/A
6:50 am61 °FPartly sunny.7 mph88%29.83 "HgN/A
6:20 am59 °FScattered clouds.5 mph100%29.83 "Hg6 mi
5:50 am59 °FScattered clouds.3 mph94%29.83 "Hg5 mi
5:20 am59 °FClear.5 mph94%29.83 "Hg4 mi
4:50 am57 °FFog.3 mph100%29.83 "Hg4 mi
4:20 am59 °FClear.3 mph94%29.83 "Hg4 mi
3:50 am59 °FClear.3 mph94%29.86 "Hg4 mi
3:20 am57 °FClear.2 mph100%29.86 "Hg4 mi
2:50 am59 °FClear.3 mph94%29.86 "Hg4 mi
2:20 am59 °FClear.2 mph94%29.86 "Hg4 mi
1:50 am59 °FClear.2 mph100%29.89 "Hg4 mi
1:20 am59 °FPassing clouds.3 mph100%29.89 "Hg5 mi
Weather by CustomWeather, © 2017

See weather overviewHow to use our weather pages